Kirkville, IA

5:55 PM CDT on August 25, 2016 (GMT -0500)
Ottumwa Industrial

Weather History for KOTM - February, 2014

Change the Weather History Date:

Wednesday, February 19, 2014

  Actual Average Record
Temperature  
Mean Temperature 38 °F 28 °F  
Max Temperature 46 °F 38 °F 72 °F (1930)
Min Temperature 30 °F 19 °F -23 °F (1936)
Degree Days  
Heating Degree Days 27 37  
Month to date heating degree days 954 749  
Since 1 July heating degree days 5118 4571  
Cooling Degree Days 0 0  
Month to date cooling degree days 0 0  
Year to date cooling degree days 0 0  
Moisture  
Dew Point 30 °F    
Average Humidity 73    
Maximum Humidity 92    
Minimum Humidity 53    
Precipitation  
Precipitation 0.09 in 0.05 in 0.63 in (1994)
Month to date precipitation 0.41 0.73  
Year to date precipitation 0.53 1.63  
Sea Level Pressure  
Sea Level Pressure 29.89 in    
Wind  
Wind Speed 9 mph (SW)    
Max Wind Speed 16 mph    
Max Gust Speed 20 mph    
Visibility 10 miles    
Events Rain    
T = Trace of Precipitation, MM = Missing Value Source: NWS Daily Summary

Daily Weather History Graph

Daily Weather History Graph

Search for Another Location

Airport or City:

Trip Planner

Search our weather history database for the weather conditions in past years. The results will help you decide how hot, cold, wet, or windy it might be!

Date:

Astronomy

Feb. 19, 2014 Rise Set
Actual Time 6:58 AM CST 5:48 PM CST
Civil Twilight 6:30 AM CST 6:17 PM CST
Nautical Twilight 5:58 AM CST 6:49 PM CST
Astronomical Twilight 5:26 AM CST 7:21 PM CST
Moon 10:45 PM CST (2/19) 9:02 AM CST (2/19)
Length of Visible Light 11h 46m
Length of Day
10h 50m
Waning Gibbous, 79% of the Moon is Illuminated
Feb 19
Waning Gibbous
Feb 22
Last Quarter
Mar 1
New
Mar 8
First Quarter
Mar 16
Full

Hourly Weather History & Observations

Time (CST) Temp. Windchill Dew Point Humidity Pressure Visibility Wind Dir Wind Speed Gust Speed Precip Events Conditions
12:53 AM 37.0 °F 28.9 °F 30.0 °F 76% 29.86 in 10.0 mi WNW 12.7 mph - N/A   Clear
1:53 AM 36.0 °F 27.5 °F 30.0 °F 79% 29.87 in 10.0 mi WNW 12.7 mph - N/A   Clear
2:53 AM 34.0 °F 26.6 °F 30.0 °F 85% 29.88 in 10.0 mi West 9.2 mph - N/A   Clear
3:53 AM 34.0 °F 26.6 °F 30.0 °F 85% 29.90 in 10.0 mi West 9.2 mph - N/A   Clear
4:53 AM 32.0 °F 24.8 °F 28.9 °F 88% 29.91 in 10.0 mi West 8.1 mph - N/A   Clear
5:53 AM 32.0 °F 24.8 °F 28.9 °F 88% 29.92 in 10.0 mi WNW 8.1 mph - N/A   Clear
6:53 AM 30.9 °F 23.5 °F 28.0 °F 89% 29.92 in 10.0 mi West 8.1 mph - N/A   Clear
7:53 AM 30.9 °F 24.3 °F 28.9 °F 92% 29.96 in 10.0 mi West 6.9 mph - N/A   Clear
8:53 AM 34.0 °F 28.8 °F 30.0 °F 85% 29.97 in 10.0 mi West 5.8 mph - N/A   Clear
9:53 AM 37.0 °F 32.4 °F 30.9 °F 79% 29.98 in 10.0 mi WNW 5.8 mph - N/A   Clear
10:53 AM 39.9 °F - 32.0 °F 73% 29.96 in 10.0 mi Calm Calm - N/A   Clear
11:53 AM 42.1 °F 38.4 °F 30.0 °F 62% 29.98 in 10.0 mi SW 5.8 mph - N/A   Clear
12:53 PM 44.1 °F 38.1 °F 28.0 °F 53% 29.95 in 10.0 mi SSW 11.5 mph - N/A   Clear
1:53 PM 45.0 °F 40.6 °F 28.9 °F 53% 29.93 in 10.0 mi SSW 8.1 mph - N/A   Clear
2:53 PM 45.0 °F 40.1 °F 28.0 °F 52% 29.92 in 10.0 mi SSW 9.2 mph - N/A   Clear
3:53 PM 45.0 °F 41.2 °F 32.0 °F 60% 29.88 in 10.0 mi SE 6.9 mph - N/A   Clear
4:53 PM 41.0 °F 34.7 °F 30.0 °F 65% 29.88 in 10.0 mi SSE 10.4 mph - N/A   Clear
5:53 PM 41.0 °F 33.5 °F 30.0 °F 65% 29.86 in 10.0 mi SSE 13.8 mph - N/A   Clear
6:53 PM 39.0 °F 32.8 °F 30.0 °F 70% 29.85 in 10.0 mi SE 9.2 mph - N/A   Clear
7:53 PM 39.0 °F 31.8 °F 28.9 °F 67% 29.84 in 10.0 mi SSE 11.5 mph - N/A   Mostly Cloudy
8:53 PM 39.9 °F 32.9 °F 30.0 °F 68% 29.81 in 10.0 mi SSE 11.5 mph - N/A   Overcast
9:53 PM 37.9 °F 33.5 °F 30.9 °F 76% 29.82 in 10.0 mi East 5.8 mph - 0.00 in Rain Light Rain
10:53 PM 36.0 °F 29.0 °F 32.0 °F 86% 29.77 in 6.0 mi ESE 9.2 mph - 0.05 in Rain Rain
11:53 PM 36.0 °F 29.0 °F 33.1 °F 89% 29.73 in 6.0 mi East 9.2 mph - 0.04 in Rain Light Rain